DateTimeUTC,F1_A11,F1_S11,BsB_S11,BsG_S11,BsR_S11,BbsB_S11,BbsG_S11,BbsR_S11,BaB_A11,BaG_A11,BaR_A11,Tu_S11,T_S11,Uu_S11,U_S11,P_S11,T1_A11
2021-11-07T19:00:00Z,00000200,21000000,,,,,,,0000.17,0000.03,0000.39,14.2,20.9,,00.0,0647.7,30.5
2021-11-07T19:01:00Z,00000200,21000000,,,,,,,0000.10,0000.47,0000.30,14.2,20.9,,00.0,0647.7,30.5
2021-11-07T19:02:00Z,00000200,21000000,,,,,,,0000.62,0000.10,0000.39,14.2,20.9,,00.0,0647.7,30.5
2021-11-07T19:03:00Z,00000200,61000000,,,,,,,0000.24,0000.66,0000.17,14.2,20.9,,00.0,0647.7,30.5
2021-11-07T19:04:00Z,00000200,41000000,0000.97,0000.31,0000.02,-000.10,-000.35,0000.16,-000.16,0000.00,0000.35,14.4,20.8,,00.0,0648.6,30.5
2021-11-07T19:05:00Z,00000200,01000000,0000.87,0000.52,0000.01,-000.08,-000.15,-000.17,0000.37,-000.45,-000.05,14.5,20.8,,00.0,0648.7,30.5
2021-11-07T19:06:00Z,00000200,01000000,0000.49,0000.21,0000.20,0000.26,-000.29,0000.10,-000.45,-000.08,-000.40,14.5,20.8,,00.0,0648.7,30.5
2021-11-07T19:07:00Z,00000200,01000000,0000.60,0000.41,-000.07,0000.48,-000.16,-000.23,0000.58,0000.82,0000.28,14.6,20.7,,00.0,0648.8,30.5
2021-11-07T19:08:00Z,00000200,01000000,0000.09,0000.62,0000.20,-000.04,0000.06,0000.05,0000.59,0000.26,0000.48,14.6,20.7,,00.0,0648.8,30.5
2021-11-07T19:09:00Z,00000200,01000000,0000.55,0000.13,0000.05,0000.04,-000.28,-000.05,0000.33,0000.52,0000.29,14.6,20.7,,00.0,0648.8,30.5
2021-11-07T19:10:00Z,00000200,01000000,-000.30,0000.48,0000.08,0000.28,-000.47,-000.04,0000.29,-000.03,0000.58,14.6,20.8,,00.0,0648.8,30.5
2021-11-07T19:11:00Z,00000200,01000000,0000.06,0000.42,0000.20,-000.20,-000.29,-000.03,0000.57,0000.62,0000.56,14.6,20.8,,00.0,0648.8,30.5
2021-11-07T19:12:00Z,00000200,01000000,-000.08,0000.42,0000.25,0000.40,-000.45,-000.02,-000.11,-000.08,-000.52,14.6,20.8,,00.0,0648.9,30.5
2021-11-07T19:13:00Z,00000200,01000000,0001.02,0000.57,0000.10,0001.15,-000.20,-000.03,-000.14,0000.10,-000.06,14.6,20.8,,00.0,0648.9,30.5
2021-11-07T19:14:00Z,00000200,01000000,0001.27,0000.04,0000.39,0000.46,-000.10,0000.12,-000.18,-000.63,-000.37,14.6,20.8,,00.0,0648.9,30.5
2021-11-07T19:15:00Z,00000200,01000000,0000.99,0000.22,0000.20,0000.01,0000.03,-000.06,-000.07,-000.07,0000.27,14.6,20.8,,00.0,0648.9,30.5
2021-11-07T19:16:00Z,00000200,01000000,0000.14,0000.16,0000.20,-000.12,-000.43,-000.04,0000.11,0000.22,-000.58,14.6,20.8,,00.0,0648.9,30.5
2021-11-07T19:17:00Z,00000200,01000000,0000.97,0000.43,0000.10,-000.32,-000.15,-000.02,-000.25,-000.35,0000.12,14.6,20.8,,00.0,0648.9,30.5
2021-11-07T19:18:00Z,00000200,01000000,0000.70,0000.42,0000.06,-000.09,0000.02,-000.03,0000.23,0000.20,0000.18,14.7,20.8,,00.0,0648.9,30.5
2021-11-07T19:19:00Z,00000200,01000000,0000.96,0000.72,0000.39,0000.35,-000.01,-000.12,0000.28,0000.22,0000.24,14.7,20.8,,00.0,0648.9,30.5
2021-11-07T19:20:00Z,00000200,01000000,0000.96,-000.01,0000.08,0000.14,-000.06,-000.17,0000.02,-000.02,-000.02,14.7,20.8,,00.0,0649.0,30.5
2021-11-07T19:21:00Z,00000200,01000000,-000.05,0000.45,0000.07,-000.11,-000.12,-000.03,-000.08,-000.06,-000.35,14.7,20.8,,00.0,0649.1,30.5
2021-11-07T19:22:00Z,00000200,01000000,0000.82,0000.63,0000.10,0000.02,-000.23,-000.09,-000.12,-000.42,-000.38,14.7,20.8,,00.0,0649.2,30.5
2021-11-07T19:23:00Z,00000200,01000000,0000.90,0000.09,0000.25,-000.22,0000.03,0000.15,-000.27,-000.18,-000.32,14.7,20.8,,00.0,0649.3,30.5
2021-11-07T19:24:00Z,00000200,01000000,0000.00,0000.22,0000.24,0000.14,-000.18,0000.13,-000.10,-000.15,0000.07,14.7,20.8,,00.0,0649.2,30.5
2021-11-07T19:25:00Z,00000200,01000000,0000.42,0000.58,0000.24,0000.79,-000.09,-000.15,0000.23,0000.10,0000.15,14.7,20.8,,00.0,0649.2,30.5
2021-11-07T19:26:00Z,00000200,01000000,0001.34,0000.27,0000.23,-000.26,-000.32,0000.23,-000.24,-000.01,-000.10,14.7,20.8,,00.0,0649.3,30.5
2021-11-07T19:27:00Z,00000200,01000000,0001.11,0000.22,0000.04,0000.40,-000.07,-000.06,-000.08,0000.03,-000.14,14.7,20.8,,00.0,0649.3,30.5
2021-11-07T19:28:00Z,00000200,01000000,0000.55,0000.64,-000.02,0000.29,0000.06,-000.05,0000.23,-000.02,-000.37,14.7,20.9,,00.0,0649.4,30.5
2021-11-07T19:29:00Z,00000200,01000000,0000.23,0000.30,0000.24,0000.75,-000.30,0000.06,0000.24,-000.12,0000.30,14.7,20.9,,00.0,0649.4,30.5
2021-11-07T19:30:00Z,00000200,01000000,0000.35,0000.48,-000.07,-000.27,0000.19,-000.02,-000.08,0000.34,0000.05,14.7,20.8,,00.0,0649.3,30.5
2021-11-07T19:31:00Z,00000200,01000000,0000.49,0000.46,0000.17,-000.24,-000.30,0000.10,0000.20,0000.13,0000.30,14.7,20.9,,00.0,0649.3,30.5
2021-11-07T19:32:00Z,00000200,01000000,0000.54,0000.38,0000.39,-000.05,-000.23,0000.16,-000.15,0000.29,0000.19,14.7,20.9,,00.0,0649.3,30.5
2021-11-07T19:33:00Z,00000200,01000000,0000.53,0000.29,0000.30,0000.50,0000.22,-000.13,0000.54,0000.05,0000.07,14.8,20.9,,00.0,0649.2,30.5
2021-11-07T19:34:00Z,00000200,01000000,0000.77,0000.36,0000.30,-000.01,-000.01,0000.06,0000.20,0000.22,-000.11,14.7,20.9,,00.0,0649.2,30.5
2021-11-07T19:35:00Z,00000200,01000000,0000.56,0000.27,0000.34,0000.83,-000.01,0000.04,0000.19,0000.19,0000.47,14.8,20.9,,00.0,0649.1,30.5
2021-11-07T19:36:00Z,00000200,01000000,0000.45,0000.61,0000.14,0000.23,-000.34,-000.06,0000.65,0000.31,0000.27,14.8,20.9,,00.0,0649.1,30.5
2021-11-07T19:37:00Z,00000200,01000000,0001.29,0000.36,0000.31,0000.44,-000.17,-000.09,0000.26,0000.52,0000.78,14.8,20.9,,00.0,0649.0,30.5
2021-11-07T19:38:00Z,00000200,01000000,0000.41,0000.32,0000.24,0000.44,-000.37,0000.16,0000.78,0000.39,-000.08,14.8,20.9,,00.0,0649.0,30.5
2021-11-07T19:39:00Z,00000200,01000000,0000.69,0000.49,0000.11,0000.58,-000.39,-000.05,-000.04,0000.52,0000.55,14.8,20.9,,00.0,0649.0,30.5
2021-11-07T19:40:00Z,00000200,01000000,0000.88,0000.41,0000.17,0000.08,-000.10,-000.15,0000.29,-000.14,-000.13,14.8,20.9,,00.0,0649.0,30.5
2021-11-07T19:41:00Z,00000200,01000000,0000.93,0000.44,0000.38,-000.78,-000.16,0000.16,0000.32,0000.44,0000.11,14.8,20.9,,00.0,0649.0,30.5
2021-11-07T19:42:00Z,00000200,01000000,0000.35,0000.33,0000.33,0000.52,-000.14,0000.04,0000.00,0000.40,0000.43,14.8,20.9,,00.0,0649.0,30.5
2021-11-07T19:43:00Z,00000200,01000000,0001.18,0000.57,0000.03,0000.65,-000.53,-000.03,0000.61,0000.13,-000.11,14.8,20.9,,00.0,0649.0,30.5
2021-11-07T19:44:00Z,00000200,01000000,0000.49,0000.16,0000.31,-000.77,-000.23,-000.10,-000.36,-000.08,0000.34,14.8,20.9,,00.0,0649.0,30.5
2021-11-07T19:45:00Z,00000200,01000000,0000.38,0000.43,0000.20,0000.28,-000.40,-000.06,0000.37,0000.26,0000.11,14.8,20.9,,00.0,0649.0,30.5
2021-11-07T19:46:00Z,00000200,01000000,0001.26,0000.50,0000.29,0000.39,-000.17,0000.24,-000.17,0000.15,0000.13,14.8,20.9,,00.0,0649.0,30.5
2021-11-07T19:47:00Z,00000200,01000000,0001.04,0000.48,0000.23,0000.08,-000.24,-000.05,0000.30,0000.32,0000.23,14.8,21.0,,00.0,0649.0,30.5
2021-11-07T19:48:00Z,00000200,01000000,0000.38,0000.17,0000.46,0000.25,-000.12,0000.11,0000.73,-000.05,-000.11,14.8,20.9,,00.0,0649.0,30.5
2021-11-07T19:49:00Z,00000200,01000000,0000.68,0000.32,0000.55,0000.52,-000.15,0000.17,-000.19,0000.58,0000.22,14.8,21.0,,00.0,0648.9,30.5
2021-11-07T19:50:00Z,00000200,01000000,0001.34,0000.50,0000.31,0000.08,-000.14,0000.22,0000.47,0000.25,0000.40,14.8,21.0,,00.0,0648.9,30.5
2021-11-07T19:51:00Z,00000200,01000000,0000.30,0000.51,0000.19,0000.37,-000.25,-000.06,0000.45,0000.23,0000.09,14.8,21.0,,00.0,0648.9,30.5
2021-11-07T19:52:00Z,00000200,01000000,0000.38,0000.35,-000.09,-000.56,-000.42,-000.07,0000.23,0000.13,0000.49,14.8,21.0,,00.0,0648.9,30.5
2021-11-07T19:53:00Z,00000200,01000000,0000.62,0000.50,0000.23,0000.56,0000.16,0000.08,0000.04,0000.24,-000.31,14.8,20.9,,00.0,0648.9,30.5
2021-11-07T19:54:00Z,00000200,01000000,0000.61,0000.75,0000.51,0000.42,-000.00,0000.09,0000.11,-000.15,0000.05,14.8,20.9,,00.0,0649.0,30.5
2021-11-07T19:55:00Z,00000200,01000000,0000.00,0000.21,0000.05,0000.40,-000.22,0000.08,-000.11,-000.41,0000.00,14.8,21.0,,00.0,0649.0,30.5
2021-11-07T19:56:00Z,00000200,01000000,0000.65,0000.70,0000.33,-000.25,-000.16,0000.27,0000.11,0000.71,0000.24,14.8,21.0,,00.0,0649.1,30.5
2021-11-07T19:57:00Z,00000200,41000000,,,,,,,0001.24,0001.02,0000.94,14.9,21.0,,00.0,0649.1,30.5
2021-11-07T19:58:00Z,00000200,61000000,,,,,,,-000.28,-000.74,-000.41,14.5,21.1,,00.0,0648.2,30.5
2021-11-07T19:59:00Z,00000200,21000000,,,,,,,-000.83,-000.54,-000.38,14.5,21.2,,00.0,0648.2,30.5
